Retour au catalogue

TRACERS 2

ActifScienceSSO
NORAD 64873·PAYLOAD·🇺🇸 United States

Lancé Jul 23, 2025 depuis Vandenberg Space Force Base

Loading…

Prochains Passages (prochaines 24 heures)

TLE

FraisSource: Space-Track

Époque: Sep 14, 2026, 09:51 UTC

1 64873U 25154E   26257.41048174  .00000848  00000-0  85418-4 0  9996
2 64873  97.6601 318.8654 0004151  22.4157 337.7244 14.93687595 62315

Suivez TRACERS 2 en temps réel avec AllMySat

Download on the App Store